CAPE
0 0 0 0 0 0 0 0 0 0 0 0 0 0 195 808 1274 1388 1570 2203 2357 2495 2225 1645 1811 2121 2317 2534 2510 2418 2514 2658 2697 2684 2737 2704 2679 2551 2586 2648 2729 3079 3103 2748 2276 2191 2085 1936 2070
0 0 0 0 0 0 1 0 0 0 0 0 0 0 169 874 1396 1143 1150 1902 2210 2778 2638 2134 1778 2028 2216 2350 2567 2689 2843 2877 2794 2785 2781 2854 2813 2642 2667 2634 2647 3105 3223 2973 2198 2070 1977 1856 1526
0 0 0 0 0 0 0 0 0 0 0 0 0 0 145 678 1288 1077 939 1701 2054 2803 2914 2022 1712 1910 2105 2200 2477 2767 3024 2976 2858 2807 2921 2935 3002 2828 2815 2648 2602 3105 3438 3231 2554 2585 2303 1397 1104
0 0 0 0 0 0 0 0 0 0 0 0 0 25 64 623 645 687 631 1191 1991 3522 3066 1619 1674 1773 1988 2100 2230 2617 2897 2895 2840 2774 2947 3037 3092 3019 2873 2588 2620 3119 3435 3158 3175 2978 2699 1397 819
0 0 0 0 0 0 0 0 0 0 0 0 0 27 0 0 0 132 655 1016 1985 3105 3414 2328 1845 1854 1856 1972 2129 2185 2357 2604 2756 2829 2909 2998 3093 3068 2873 2518 2569 2866 3284 3296 3049 2873 2642 1893 1037
0 0 0 0 1 0 0 0 0 0 0 0 0 0 0 0 0 0 304 1010 1548 2350 3745 2483 2051 2096 2066 2025 1941 1947 2017 2113 2467 2718 2887 3030 2958 2891 2811 2556 2466 2607 2848 3136 2905 2518 2554 2151 1412
0 0 0 0 0 0 0 0 0 0 0 0 0 0 0 0 0 0 106 587 1590 2500 3242 3908 3146 2387 1990 2010 1972 1853 1822 1856 1944 2240 2605 2870 2865 2736 2678 2608 2479 2483 2576 2632 2835 2505 2470 2198 1653
0 0 0 0 0 0 0 0 0 0 0 0 0 0 0 0 0 0 0 163 745 1173 3331 2829 4178 3585 3169 2763 1936 1856 1805 1765 1691 1753 1898 2276 2572 2606 2441 2405 2368 2396 2409 2303 2519 2528 2367 2094 1600
0 0 0 0 0 0 0 0 0 0 0 0 0 0 0 0 0 0 0 0 1 62 727 1135 1592 3224 4190 4601 3000 1825 1784 1820 1741 1580 1576 1661 2065 2394 2691 2487 2386 2190 2173 2048 2184 2262 2210 1935 1409
0 0 0 0 0 0 0 0 0 0 0 0 0 0 0 0 0 0 0 0 1 65 78 32 98 936 2048 2821 2669 3328 2989 2377 2379 2399 2636 2024 2167 2057 1913 2145 2158 1853 1861 1822 1853 1959 1839 1536 1494
0 0 0 0 0 0 0 0 0 0 0 0 0 0 0 0 0 0 0 0 0 0 0 0 0 51 1174 1593 2442 2558 2282 2410 2824 2629 2779 2806 2702 2581 2330 2008 1475 1596 1532 1914 1541 1535 1555 1705 1448
0 0 0 0 0 0 0 0 0 0 0 0 0 0 0 0 0 0 0 0 0 0 0 0 0 0 81 824 850 855 1794 2418 2104 1379 217 1860 2509 2605 2253 1806 1556 1393 1409 1685 1681 1361 1388 1438 1458
0 0 0 0 0 0 0 0 0 0 0 0 0 0 0 0 0 0 0 0 0 0 0 0 0 0 0 140 162 297 72 49 30 2 1 0 2 2 229 1607 1964 1528 1598 1370 1303 1146 1251 1293 1415
0 0 0 0 0 0 0 0 0 0 0 0 0 0 0 0 0 0 0 0 0 0 0 0 0 0 0 4 47 1 0 0 0 0 0 0 0 0 0 8 533 1153 748 1278 1146 983 857 493 331
0 0 0 0 0 0 0 0 0 0 0 0 0 0 0 0 0 0 0 0 0 0 0 0 0 0 0 0 0 5 0 0 0 0 0 0 0 0 0 0 81 82 14 53 236 355 184 1 0
0 0 0 0 0 0 0 0 0 0 0 0 0 0 0 0 0 0 0 0 0 0 0 0 0 0 0 0 0 0 0 0 0 0 0 0 0 0 0 0 2 0 0 141 252 467 431 0 14
0 0 0 0 0 0 0 0 0 0 0 0 0 0 0 0 0 0 0 0 0 0 0 0 0 0 0 0 0 0 0 0 0 0 0 0 0 0 0 0 0 0 0 1 11 3 71 366 114
0 0 0 0 0 0 0 0 0 0 0 0 0 0 0 0 0 0 0 0 0 0 0 0 0 0 0 0 0 0 0 0 0 0 0 0 0 0 0 0 0 0 0 0 0 0 19 70 59
0 0 0 0 0 0 0 0 0 0 0 0 0 0 0 0 0 0 0 0 0 0 0 0 0 0 0 0 0 0 0 0 0 0 0 0 0 0 0 0 0 0 0 0 0 0 0 0 45
0 0 0 0 0 0 0 0 0 0 0 0 0 1 0 0 0 0 0 0 0 0 0 0 0 0 0 0 0 0 0 0 0 0 0 0 0 0 0 0 0 0 0 0 0 0 0 0 0
0 0 0 0 0 0 0 0 0 0 0 0 0 0 0 0 0 0 0 0 0 0 0 0 0 0 0 0 0 0 0 0 0 0 0 0 0 0 0 0 0 0 0 0 0 0 0 0 0
0 0 0 0 0 0 0 0 0 0 0 0 0 0 0 0 0 0 0 0 0 0 0 0 0 0 0 0 0 0 0 0 0 0 0 0 0 0 0 0 0 0 0 1 1 3 1 0 1
0 0 0 0 0 0 0 0 0 0 0 0 0 0 0 0 0 0 0 0 0 0 0 0 0 0 0 0 0 0 0 0 0 0 0 0 0 0 0 0 0 0 3 5 2 2 2 1 0
0 0 0 0 0 0 0 0 0 0 3 14 0 0 0 0 0 0 0 0 0 0 0 0 0 0 0 0 0 0 0 0 0 0 0 0 0 0 0 3 6 9 7 7 9 2 10 9 8
0 0 0 0 2 0 0 2 6 0 0 4 0 0 0 0 0 0 0 0 0 0 0 0 0 0 0 0 0 0 0 0 0 0 0 1 4 3 4 5 9 2 7 9 9 10 7 12 12
0 0 2 1 9 1 0 0 0 0 0 0 5 32 0 0 0 0 0 0 0 0 0 0 0 0 0 0 0 0 0 0 0 0 3 4 5 7 6 6 9 6 9 11 8 11 9 10 14
0 0 0 44 15 22 0 0 0 0 29 105 10 23 39 2 0 0 0 0 0 0 0 0 0 0 0 0 0 0 0 0 1 2 3 4 4 4 8 7 3 6 7 6 9 12 13 9 11
1 0 1 38 12 20 7 4 23 55 37 29 40 18 66 88 0 0 0 0 0 0 0 0 0 0 0 1 1 2 2 3 3 3 4 2 5 8 8 6 4 6 2 5 8 6 10 11 8
0 27 21 28 32 37 6 0 64 24 48 39 1 0 9 174 0 0 0 0 0 0 0 0 0 0 1 4 3 4 2 1 0 4 5 2 6 7 7 7 8 10 9 5 3 7 9 16 16
0 7 41 77 17 17 7 2 16 209 58 0 0 75 176 7 0 0 0 0 0 0 0 0 0 0 0 1 2 2 2 2 2 1 4 5 4 7 7 8 5 10 8 8 6 14 12 13 18
CIN
-0 -0 -0 -0 -0 -0 -0 -0 -0 -0 -0 -0 -0 -0 -30 -23 -32 -14 -18 -30 -14 -105 -229 -342 -341 -269 -224 -169 -151 -146 -121 -106 -99 -93 -75 -56 -35 -29 -26 -23 -14 -1 -0 -0 -13 -9 -10 -18 -11
-0 -0 -0 -0 -0 -0 -3 -0 -0 -0 -0 -0 -0 -0 -9 -42 -2 -57 -53 -35 -13 -47 -132 -196 -346 -267 -213 -177 -138 -110 -91 -81 -84 -74 -63 -48 -33 -24 -12 -14 -14 -1 -0 -0 -15 -16 -14 -26 -49
-0 -0 -0 -0 -0 -0 -0 -0 -0 -0 -0 -0 -0 -0 -20 -12 -6 -41 -60 -32 -16 -5 -68 -260 -344 -285 -225 -192 -152 -106 -81 -79 -80 -74 -56 -41 -25 -22 -14 -16 -9 -1 -0 -0 -1 -2 -8 -56 -77
-0 -0 -0 -0 -0 -0 -0 -0 -0 -0 -0 -0 -0 -25 -64 -36 -42 -76 -76 -58 -33 -33 -102 -362 -334 -296 -239 -199 -168 -127 -101 -93 -83 -75 -47 -31 -21 -17 -21 -32 -14 -0 -0 -0 -0 -0 -2 -63 -108
-0 -0 -0 -0 -0 -0 -0 -0 -0 -0 -0 -0 -0 -15 -0 -0 -0 -110 -84 -84 -36 -14 -78 -199 -282 -266 -248 -211 -172 -157 -130 -103 -86 -73 -53 -39 -25 -19 -20 -35 -26 -2 -0 -2 -3 -3 -4 -31 -92
-0 -0 -0 -0 -3 -0 -0 -0 -0 -0 -0 -0 -0 -0 -0 -0 -0 -0 -135 -110 -75 -27 -44 -169 -247 -216 -211 -197 -193 -180 -166 -141 -103 -75 -53 -37 -38 -31 -26 -36 -36 -20 -3 -1 -3 -5 -4 -11 -63
-0 -0 -0 -0 -0 -0 -0 -0 -0 -0 -0 -0 -0 -0 -0 -0 -0 -0 -102 -128 -61 -23 -16 -55 -99 -163 -202 -185 -178 -175 -172 -164 -143 -103 -63 -42 -37 -43 -37 -36 -41 -37 -24 -16 -3 -5 -6 -9 -39
-0 -0 -0 -0 -0 -0 -0 -0 -0 -0 -0 -0 -0 -0 -0 -0 -0 -0 -0 -132 -86 -52 -21 -10 -25 -65 -73 -95 -178 -161 -148 -139 -140 -120 -110 -70 -39 -36 -49 -41 -39 -39 -36 -43 -20 -14 -12 -16 -44
-0 -0 -0 -0 -0 -0 -0 -0 -0 -0 -0 -0 -0 -0 -0 -0 -0 -0 -0 -0 -27 -140 -222 -251 -174 -23 -4 -9 -84 -179 -170 -140 -124 -135 -124 -98 -59 -32 -22 -29 -25 -55 -53 -56 -39 -27 -24 -37 -57
-0 -0 -0 -0 -0 -0 -0 -0 -0 -0 -0 -0 -0 -0 -0 -0 -0 -0 -0 -0 -32 -312 -413 -532 -472 -249 -139 -6 -165 -82 -99 -127 -99 -48 -17 -65 -42 -36 -8 -15 -52 -70 -71 -65 -51 -43 -45 -44 -25
-0 -0 -0 -0 -0 -0 -0 -0 -0 -0 -0 -0 -0 -0 -0 -0 -0 -0 -0 -0 -0 -0 -0 -0 -0 -533 -149 -132 -50 -61 -42 -15 -26 -14 -24 -15 -15 -19 -30 -36 -78 -62 -83 -43 -67 -50 -32 -9 -31
-0 -0 -0 -0 -0 -0 -0 -0 -0 -0 -0 -0 -0 -0 -0 -0 -0 -0 -0 -0 -0 -0 -0 -0 -0 -0 -441 -131 -162 -177 -76 -5 -11 -89 -247 -25 -1 -2 -15 -17 -44 -13 -21 -20 -16 -25 -26 -25 -27
-0 -0 -0 -0 -0 -0 -0 -0 -0 -0 -0 -0 -0 -0 -0 -0 -0 -0 -0 -0 -0 -0 -0 -0 -0 -0 -0 -336 -324 -210 -387 -403 -403 -0 -0 -0 -0 -0 -216 -30 -17 -24 -17 -30 -27 -24 -10 -4 -12
-0 -0 -0 -0 -0 -0 -0 -0 -0 -0 -0 -0 -0 -0 -0 -0 -0 -0 -0 -0 -0 -0 -0 -0 -0 -0 -0 -179 -340 -164 -0 -0 -0 -0 -0 -0 -0 -0 -0 -96 -78 -28 -64 -11 -22 -30 -21 -38 -8
-0 -0 -0 -0 -0 -0 -0 -0 -0 -0 -0 -0 -0 -0 -0 -0 -0 -0 -0 -0 -0 -0 -0 -0 -0 -0 -0 -0 -0 -5 -0 -0 -0 -0 -0 -0 -0 -0 -0 -0 -125 -112 -197 -162 -90 -79 -97 -0 -0
-0 -0 -0 -0 -0 -0 -0 -0 -0 -0 -0 -0 -0 -0 -0 -0 -0 -0 -0 -0 -0 -0 -0 -0 -0 -0 -0 -0 -1 -0 -0 -0 -0 -0 -0 -0 -0 -0 -0 -0 -13 -1 -0 -53 -20 -4 -13 -0 -93
-0 -0 -0 -0 -0 -0 -0 -0 -0 -0 -0 -0 -0 -0 -0 -0 -0 -0 -0 -0 -0 -0 -0 -0 -0 -0 -0 -0 -0 -0 -0 -0 -0 -0 -0 -0 -0 -0 -0 -0 -0 -0 -0 -2 -15 -44 -51 -15 -26
-0 -0 -0 -0 -0 -0 -0 -0 -0 -0 -0 -0 -0 -0 -0 -0 -0 -0 -0 -0 -0 -0 -0 -0 -0 -0 -0 -0 -0 -0 -0 -0 -0 -0 -0 -0 -0 -0 -0 -0 -0 -0 -0 -0 -0 -0 -23 -53 -39
-0 -0 -0 -0 -0 -0 -0 -0 -0 -0 -0 -0 -0 -0 -0 -0 -0 -0 -0 -0 -0 -0 -0 -0 -0 -0 -0 -0 -0 -0 -0 -0 -0 -0 -0 -0 -0 -0 -0 -0 -0 -0 -0 -0 -0 -0 -0 -0 -84
-0 -0 -0 -0 -0 -0 -0 -0 -0 -0 -0 -0 -0 -10 -0 -0 -0 -0 -0 -0 -0 -0 -0 -0 -0 -0 -0 -0 -0 -0 -0 -0 -0 -0 -0 -0 -0 -0 -0 -0 -0 -0 -0 -0 -0 -0 -0 -0 -0
-0 -0 -0 -0 -0 -0 -0 -0 -0 -0 -0 -0 -0 -0 -0 -0 -0 -0 -0 -0 -0 -0 -0 -0 -0 -0 -0 -0 -0 -0 -0 -0 -0 -0 -0 -0 -0 -0 -0 -0 -0 -0 -0 -0 -0 -0 -0 -0 -0
-0 -0 -0 -0 -0 -0 -0 -0 -0 -0 -0 -0 -0 -0 -0 -0 -0 -0 -0 -0 -0 -0 -0 -0 -0 -0 -0 -0 -0 -0 -0 -0 -0 -0 -0 -0 -0 -0 -0 -0 -0 -0 -0 -0 -0 -0 -1 -0 -0
-0 -0 -0 -0 -0 -0 -0 -0 -0 -0 -0 -0 -0 -0 -0 -0 -0 -0 -0 -0 -0 -0 -0 -0 -0 -0 -0 -0 -0 -0 -0 -0 -0 -0 -0 -0 -0 -0 -0 -0 -0 -0 -0 -0 -1 -0 -0 -0 -0
-0 -0 -0 -0 -0 -0 -0 -0 -0 -0 -4 -22 -0 -0 -0 -0 -0 -0 -0 -0 -0 -0 -0 -0 -0 -0 -0 -0 -0 -0 -0 -0 -0 -0 -0 -0 -0 -0 -0 -0 -0 -0 -0 -0 -0 -0 -0 -0 -0
-0 -0 -0 -0 -2 -0 -0 -0 -2 -0 -0 -16 -0 -0 -0 -0 -0 -0 -0 -0 -0 -0 -0 -0 -0 -0 -0 -0 -0 -0 -0 -0 -0 -0 -0 -0 -0 -0 -0 -0 -0 -0 -0 -0 -0 -0 -0 -0 -0
-0 -0 -1 -1 -0 -0 -0 -0 -0 -0 -7 -7 -34 -18 -0 -0 -0 -0 -0 -0 -0 -0 -0 -0 -0 -0 -0 -0 -0 -0 -0 -0 -0 -0 -0 -0 -0 -0 -0 -0 -0 -0 -0 -0 -0 -0 -0 -0 -0
-0 -0 -0 -2 -0 -0 -0 -0 -0 -1 -26 -12 -19 -9 -12 -10 -0 -0 -0 -0 -0 -0 -0 -0 -0 -0 -0 -0 -0 -0 -0 -0 -0 -0 -0 -0 -0 -0 -0 -0 -0 -0 -0 -0 -0 -0 -0 -0 -0
-1 -3 -2 -8 -1 -0 -1 -0 -0 -41 -55 -17 -4 -24 -8 -19 -0 -0 -0 -0 -0 -0 -0 -0 -0 -0 -0 -1 -1 -0 -0 -0 -0 -0 -0 -0 -0 -0 -0 -0 -0 -0 -0 -0 -0 -0 -0 -0 -0
-0 -0 -1 -1 -2 -0 -0 -0 -65 -84 -27 -43 -78 -0 -7 -22 -0 -0 -0 -0 -0 -0 -0 -0 -0 -0 -0 -0 -0 -0 -0 -0 -0 -0 -0 -0 -0 -0 -0 -0 -0 -0 -0 -0 -0 -0 -0 -0 -0
-0 -6 -1 -4 -3 -24 -10 -0 -109 -21 -40 -125 -10 -42 -9 -10 -0 -0 -0 -0 -0 -0 -0 -0 -0 -0 -0 -0 -0 -0 -1 -0 -0 -0 -0 -0 -0 -0 -0 -0 -0 -0 -0 -0 -0 -0 -0 -0 -0
Wind_Speed
17 15 10 9 6 9 16 6 7 5 4 12 6 6 18 20 16 7 7 9 10 13 13 11 8 9 9 9 8 8 8 8 8 9 8 6 5 6 7 8 8 8 8 9 8 7 6 6 5
12 17 7 7 8 12 5 8 10 11 11 6 2 4 16 17 15 14 10 8 6 15 12 11 10 8 9 9 9 8 8 8 8 8 8 8 7 7 7 7 8 8 8 9 9 7 5 6 5
13 16 7 7 11 12 8 11 8 8 3 1 2 12 10 10 14 13 9 10 11 13 11 13 12 9 8 9 10 9 8 8 9 9 9 9 8 8 8 8 7 7 9 10 10 8 7 6 5
7 7 7 8 14 9 11 10 5 6 4 3 4 14 13 11 10 11 11 13 10 16 14 10 11 9 7 7 7 8 8 8 9 9 9 9 9 9 9 9 9 8 9 11 12 9 8 7 6
8 8 10 13 19 12 6 9 6 4 8 6 6 19 16 13 12 10 13 11 10 10 12 9 7 7 6 5 5 6 6 7 8 9 9 10 9 10 9 10 10 9 9 9 10 10 10 9 8
8 10 11 13 6 11 6 8 5 3 5 8 5 13 14 11 10 7 11 10 10 8 12 10 8 6 6 5 5 5 6 7 7 8 9 9 10 10 11 11 11 10 10 10 9 10 9 9 9
12 11 14 18 17 9 10 6 1 4 2 10 7 2 10 13 8 6 8 6 7 7 7 9 9 7 5 4 5 5 6 7 8 8 8 9 10 10 11 12 13 13 12 11 12 11 9 10 10
6 10 16 15 10 14 11 6 7 4 9 1 5 4 10 9 5 5 5 6 8 6 7 5 7 9 8 7 9 6 5 4 4 7 8 7 9 10 10 11 12 13 14 13 12 12 10 11 11
12 10 12 12 13 12 6 4 10 5 6 4 0 12 10 10 9 7 5 6 5 8 15 15 15 10 4 7 9 8 8 7 6 6 7 5 6 8 11 11 12 15 13 12 11 11 12 12 11
7 10 11 9 10 8 4 4 4 1 10 6 7 9 11 9 10 10 9 10 14 16 15 14 14 15 15 6 9 10 11 8 8 7 7 6 7 7 10 12 17 14 14 12 11 12 12 9 7
12 13 8 4 9 9 9 3 6 2 7 9 8 6 10 6 9 9 10 11 12 13 12 14 13 13 12 12 8 5 4 3 3 7 7 5 4 4 5 5 4 7 8 6 9 8 8 11 9
7 14 10 10 5 5 6 8 7 7 5 8 7 9 6 7 8 9 10 10 10 12 13 12 13 11 11 8 8 10 9 6 6 8 12 7 4 4 5 5 6 5 5 9 11 7 11 13 14
10 14 12 4 6 8 9 10 10 10 5 5 12 8 7 7 8 10 9 10 10 10 11 11 11 10 9 8 7 7 9 7 8 9 10 8 7 7 8 7 6 5 5 7 10 10 10 12 13
14 10 13 11 11 11 11 12 11 11 9 8 7 14 8 6 7 9 9 8 9 10 11 9 10 11 9 6 7 6 6 6 7 7 7 8 6 6 6 7 8 7 8 9 7 9 9 9 9
9 14 16 18 16 17 9 11 19 13 14 8 9 14 11 6 7 9 8 8 8 9 9 9 8 8 8 9 7 5 4 5 4 4 7 7 7 7 7 6 6 4 5 7 9 4 4 5 4
13 15 14 15 19 8 3 12 18 13 13 9 9 14 11 9 8 8 7 8 9 10 10 9 10 10 9 8 3 3 3 3 3 4 6 10 9 9 8 6 4 7 6 3 5 5 3 2 9
14 12 14 11 13 9 12 9 7 13 11 9 8 8 12 11 8 7 6 7 9 9 9 10 10 11 8 7 6 6 7 5 5 6 7 9 10 11 9 8 8 9 7 7 4 6 4 4 1
13 11 11 10 13 10 10 14 14 12 12 14 9 8 13 10 10 7 7 8 10 10 10 10 9 11 9 6 7 6 5 4 4 5 5 8 8 10 9 8 9 9 8 9 9 9 6 3 5
14 13 15 15 17 14 13 15 13 16 19 17 11 13 14 12 10 7 6 7 8 8 8 9 8 9 7 6 7 6 4 5 3 6 6 9 7 9 8 8 9 10 9 10 8 7 9 5 3
12 14 16 17 16 15 18 18 17 19 19 17 10 7 15 14 10 6 5 7 6 7 8 9 10 10 8 7 5 4 4 4 6 6 6 11 8 9 9 8 9 11 9 10 11 10 7 7 6
14 16 16 18 15 15 17 22 22 24 20 8 3 3 15 14 12 10 6 3 4 6 7 9 9 10 9 11 7 6 6 6 7 7 7 9 9 10 9 9 10 10 9 9 10 10 12 8 9
18 16 15 10 9 12 12 16 15 15 9 9 9 8 10 12 13 12 9 6 6 6 5 6 8 9 9 10 8 9 8 7 7 7 9 8 13 11 12 15 13 12 9 10 10 10 9 9 9
18 8 7 11 13 14 16 11 18 16 16 18 15 12 11 11 10 11 8 9 7 5 5 5 8 9 9 9 9 8 8 6 6 8 10 12 10 13 14 15 13 12 9 10 11 11 11 8 8
8 4 11 13 11 13 16 15 18 14 7 18 17 15 14 14 13 12 10 9 8 6 5 5 8 9 8 8 9 9 9 9 7 9 8 8 9 9 13 13 11 11 10 11 9 11 10 9 9
8 9 6 7 10 12 18 13 9 14 3 13 19 17 15 14 13 13 12 10 7 6 5 6 8 8 8 8 9 10 10 9 10 9 8 10 8 9 11 12 11 10 11 10 10 9 10 8 8
17 13 7 9 11 14 21 13 8 8 8 14 16 17 17 15 13 12 11 9 9 6 5 6 7 8 7 8 9 9 10 7 7 9 8 7 7 8 11 11 11 12 12 11 10 8 8 10 8
12 12 13 13 13 12 14 21 18 18 14 9 9 10 16 16 14 13 11 9 9 8 6 5 7 7 7 7 7 8 8 9 8 9 9 7 8 9 10 11 12 12 12 12 12 8 10 10 10
8 10 8 4 4 13 13 16 8 11 9 4 2 5 11 15 16 13 11 10 8 9 8 5 5 7 7 7 7 7 8 8 7 8 9 9 9 10 10 11 12 12 14 15 13 11 11 11 9
12 12 12 9 10 11 13 11 8 10 8 4 6 8 19 17 14 14 13 12 10 8 8 6 5 7 6 5 6 6 6 7 7 7 8 8 9 10 11 11 12 13 14 14 13 13 12 13 13
3 11 11 5 6 2 5 10 12 7 2 10 15 8 13 4 12 13 12 13 10 9 8 6 6 6 5 4 6 5 5 5 7 8 8 8 9 10 10 11 13 13 14 14 14 13 13 14 14
Wind_Direction
294 271 234 270 242 224 252 78 48 43 101 56 32 351 70 54 36 71 59 69 110 119 120 135 112 99 102 113 126 137 147 151 149 149 152 161 172 173 168 160 151 149 151 150 155 159 146 132 124
299 298 265 277 255 270 96 74 64 38 36 84 165 210 76 58 66 75 63 66 79 126 124 138 122 115 114 118 129 141 148 155 158 160 162 167 172 180 184 181 173 168 168 167 169 166 151 137 139
265 268 281 226 246 267 50 61 52 77 125 235 144 47 38 75 53 78 66 62 68 94 119 118 125 128 134 136 135 147 151 165 172 172 172 176 180 183 185 188 192 191 185 181 187 183 158 159 162
284 248 234 252 275 59 51 73 359 132 99 9 5 92 75 49 69 72 53 80 66 84 87 102 120 133 143 148 147 147 156 170 178 178 179 184 186 190 188 189 195 205 212 203 194 200 181 181 180
249 269 263 250 262 107 65 63 339 47 51 347 325 106 89 66 56 62 77 55 79 76 108 120 127 138 148 158 164 161 161 171 181 182 184 186 190 194 192 195 200 207 216 222 199 207 197 193 194
278 239 269 262 64 99 109 85 322 356 143 56 44 90 88 69 51 19 65 64 45 68 111 128 141 151 160 176 182 183 174 182 186 190 192 192 196 194 195 197 204 209 220 228 220 223 211 203 201
258 286 280 292 297 149 126 116 209 4 333 74 331 160 111 70 28 352 97 83 90 86 51 135 150 158 176 204 209 210 203 195 196 200 203 204 206 207 206 200 202 209 212 220 215 220 214 211 210
299 290 284 277 272 79 97 129 83 272 63 325 353 7 62 43 17 3 48 128 113 103 123 60 125 163 172 182 206 208 223 230 217 220 216 216 222 225 220 213 209 213 214 220 215 214 209 214 216
276 267 263 278 329 93 112 196 132 75 285 86 142 55 52 26 26 19 337 47 50 58 41 34 13 354 161 194 176 188 208 215 224 234 231 229 238 222 225 218 223 210 216 220 217 211 215 210 214
238 261 276 20 18 60 92 310 62 316 208 178 189 81 58 23 28 35 13 28 33 35 25 19 13 3 359 304 154 193 185 189 191 201 204 205 228 234 241 215 210 209 211 220 215 220 215 206 219
253 246 313 34 31 351 338 349 272 298 283 46 59 48 62 43 58 37 39 38 24 27 22 13 9 359 358 348 360 12 9 47 50 15 360 333 308 303 289 292 214 219 224 224 218 225 223 218 218
271 272 288 301 91 302 306 305 311 289 287 77 94 74 53 53 68 42 49 46 36 39 24 11 13 360 1 352 14 1 23 23 37 43 27 1 347 324 316 305 284 257 233 233 239 215 224 222 219
263 269 278 225 267 260 272 262 268 262 199 127 114 94 80 50 40 68 52 36 57 50 33 13 19 5 356 19 10 24 29 27 31 33 25 18 12 3 348 334 313 284 260 247 254 244 236 224 221
311 310 295 270 250 242 249 252 235 238 173 177 199 136 107 71 48 49 44 47 35 46 37 16 19 2 358 18 40 36 41 42 46 45 31 23 19 360 355 342 343 348 346 324 280 263 271 298 296
290 281 270 253 241 249 247 260 243 227 148 192 237 138 118 96 68 52 39 50 44 61 55 22 24 18 7 357 12 55 54 43 56 67 51 28 25 0 348 329 328 319 332 325 328 315 279 304 38
259 261 263 264 210 142 179 285 300 175 156 202 239 143 142 101 67 56 44 51 58 47 55 47 26 13 2 351 30 70 42 47 55 61 40 19 18 6 349 319 305 1 330 280 309 323 264 103 232
216 250 257 241 167 162 192 286 74 153 203 210 224 195 143 124 103 69 63 63 63 58 50 47 34 13 10 2 355 32 15 28 53 49 38 18 15 9 353 340 1 348 329 336 6 352 342 351 215
264 261 259 274 172 202 245 253 254 279 250 228 214 249 134 132 97 79 59 56 53 54 50 52 43 17 4 15 18 15 4 32 27 57 42 36 15 11 351 356 355 347 348 354 347 340 331 337 326
284 276 282 286 301 283 267 268 262 275 267 261 214 224 137 118 109 99 91 56 66 49 53 50 50 35 21 22 22 2 359 13 21 33 32 34 14 12 355 3 353 3 353 345 334 340 338 334 334
287 276 274 280 277 273 284 284 281 269 263 261 239 99 118 120 141 133 116 62 46 44 33 39 38 40 26 358 21 352 346 356 41 12 25 20 8 9 3 1 2 4 345 345 355 346 334 324 332
251 259 271 276 287 295 296 277 264 251 251 196 119 221 131 147 158 152 135 106 73 52 36 44 40 42 31 3 18 360 360 3 18 3 17 358 5 6 5 11 15 1 355 348 349 348 3 339 332
264 274 289 302 287 269 272 286 273 291 193 155 164 167 137 152 152 155 149 124 92 77 61 58 54 44 34 28 24 26 17 12 8 4 5 349 11 0 7 22 7 2 357 350 345 348 346 347 334
262 291 303 280 276 285 264 260 277 270 266 173 165 163 161 148 154 141 136 123 101 96 84 56 65 50 40 39 30 26 27 6 2 16 360 13 356 4 21 10 3 356 344 346 347 340 336 326 313
282 281 267 252 249 253 266 252 267 271 335 177 159 167 165 162 164 139 131 134 121 104 89 61 77 59 45 40 45 35 28 21 14 13 8 357 6 5 11 358 353 346 345 339 336 328 326 322 313
226 246 269 245 231 242 257 272 262 319 174 156 168 168 168 166 153 146 161 155 125 109 96 98 73 63 52 44 47 38 29 28 29 19 9 11 2 1 355 357 347 345 341 335 334 329 323 318 310
209 225 229 276 280 297 305 285 280 330 83 120 165 170 162 165 158 159 149 133 139 123 86 81 81 70 59 51 52 47 41 33 32 26 19 13 6 353 0 350 349 346 343 345 343 335 328 322 315
248 251 270 283 284 285 273 273 268 274 243 159 153 164 160 167 142 162 142 135 139 123 99 80 88 82 66 58 59 53 46 40 36 36 27 13 7 360 2 357 355 355 352 350 345 337 332 329 321
266 296 298 294 262 270 273 278 320 36 33 11 338 248 170 159 156 158 149 138 127 124 117 107 91 85 67 64 47 54 53 47 40 39 32 16 15 9 8 5 5 0 1 359 350 344 334 343 334
242 230 245 279 280 274 281 271 86 36 332 292 289 315 309 153 169 153 157 151 133 128 132 127 98 83 75 65 66 52 50 49 46 42 38 22 18 14 17 10 9 10 5 1 353 343 355 346 340
314 290 277 234 251 219 215 259 290 153 353 352 345 271 229 158 191 151 150 139 140 153 140 125 113 103 85 80 81 73 65 60 63 43 40 31 26 22 17 19 16 14 9 3 355 351 1 356 351